Location: Invercargill
(46.4000°S, 168.3500°E)
Time: 10:32:54
(UTC+12:00)

Cosmos 1633 - Pass Details

Date: 14 May 2021
Orbit: 460 x 478 km, 82.5° (Epoch: 15 June)

Event Time Altitude Azimuth Distance (km) Brightness Sun altitude
Rises 19:08:53 0° 3° (N) 2,495 6.3 -17.8°
Reaches altitude 10° 19:10:58 10° 7° (N) 1,631 5.2 -18.2°
Enters shadow 19:14:21 54° 76° (ENE) 586 2.6 -18.7°
